^^
Station Historical Data
 
Daily Summary for August 19, 2018 Units:  English    Metric   Both
« Previous Day
Next Day »
Daily Weekly Monthly Yearly Custom
  Current: High: Low: Average:
Temperature: 84 °F TemperatureF °F 79 °F 83.6 °F
Dew Point: 76.8 °F DewpointF °F 75 °F 76.4 °F
Humidity: 79% Humidity% 64% 79%
Wind Speed: 3.5mph WindSpeedMPHmph 0mph 2.4mph
Wind Gust: 2.9mph WindSpeedGustMPHmph - -
WindWNW - - West
Pressure: 30.02 in PressureIn in 29.99 in -
Precipitation: 0.012 in      
Historical Graphs
 
 
Tabular Data for August 19, 2018
Time Temperature Dew Point Pressure Wind Wind Speed Wind Gust Humidity Rainfall Rate (Hourly) Conditions
TemperatureF °F DewpointF °F PressureIn in Calm     Humidity% HourlyPrecipIn in Conditions
00:04 79.5 °F 76.3 °F 30.01 in Calm     90% 0 in CLR
00:09 79.5 °F 76.3 °F 30.01 in Calm     90% 0 in CLR
00:14 79.5 °F 76.3 °F 30.01 in Calm     90% 0 in CLR
00:19 79.7 °F 76.2 °F 30.01 in Calm     89% 0 in CLR
00:24 79.7 °F 76.2 °F 30.01 in Calm     89% 0 in CLR
00:29 79.9 °F 76.3 °F 30.01 in Calm     89% 0 in CLR
00:34 79.9 °F 76.3 °F 30.00 in Calm     89% 0 in CLR
00:39 80.1 °F 76.5 °F 30.00 in Calm     89% 0 in CLR
00:44 80.1 °F 76.5 °F 30.00 in Calm     89% 0 in CLR
00:49 80.1 °F 76.5 °F 30.01 in Calm     89% 0 in CLR
00:54 79.9 °F 76.3 °F 30.00 in Calm     89% 0 in CLR
00:59 80.1 °F 76.5 °F 30.00 in Calm     89% 0 in CLR
01:04 80.1 °F 76.2 °F 30.01 in Calm     88% 0 in CLR
01:09 80.1 °F 76.2 °F 30.00 in Calm     88% 0 in CLR
01:14 80.1 °F 76.2 °F 30.00 in SSW 1.2 mph   88% 0 in CLR
01:19 80.1 °F 75.8 °F 30.00 in Calm     87% 0 in CLR
01:24 80.1 °F 75.8 °F 30.00 in Calm     87% 0 in CLR
01:29 80.1 °F 75.8 °F 30.00 in Calm     87% 0.012 in RA
01:34 80.1 °F 75.8 °F 29.99 in Calm     87% 0.012 in RA
01:39 80.1 °F 75.5 °F 30.00 in Calm     86% 0.012 in
01:44 80.1 °F 75.5 °F 30.00 in Calm     86% 0.012 in
01:49 80.1 °F 75.1 °F 30.00 in Calm     85% 0.012 in
01:54 80.1 °F 75.1 °F 30.00 in Calm     85% 0.012 in
01:59 80.1 °F 75.1 °F 30.00 in Calm     85% 0.012 in
02:04 80.1 °F 75.1 °F 30.00 in Calm     85% 0.012 in
02:09 80.2 °F 75.3 °F 30.00 in Calm     85% 0.012 in
02:14 80.2 °F 75.3 °F 30.00 in Calm     85% 0.012 in
02:19 80.1 °F 75.1 °F 30.00 in Calm     85% 0.012 in
02:24 80.1 °F 75.1 °F 30.00 in Calm     85% 0.012 in
02:29 79.9 °F 75 °F 30.00 in Calm     85% 0 in CLR
02:34 79.9 °F 75.3 °F 30.00 in Calm     86% 0 in CLR
02:39 79.9 °F 75.3 °F 30.00 in SSW 1.2 mph   86% 0 in CLR
02:44 79.9 °F 75.3 °F 30.00 in Calm     86% 0 in CLR
02:49 80.1 °F 75.5 °F 30.00 in Calm     86% 0 in CLR
02:54 80.1 °F 75.5 °F 30.00 in Calm     86% 0 in CLR
02:59 79.9 °F 75.3 °F 30.00 in Calm     86% 0 in CLR
03:04 79.9 °F 75.3 °F 30.00 in Calm     86% 0 in CLR
03:09 79.9 °F 75.3 °F 30.00 in Calm     86% 0 in CLR
03:14 79.9 °F 75.3 °F 30.00 in Calm     86% 0 in CLR
03:19 79.9 °F 75.3 °F 30.00 in Calm     86% 0 in CLR
03:24 79.9 °F 75.7 °F 30.01 in West 3.5 mph   87% 0 in CLR
03:29 80.1 °F 75.5 °F 30.01 in Calm     86% 0 in CLR
03:34 80.1 °F 75.5 °F 30.01 in Calm     86% 0 in CLR
03:39 80.1 °F 75.5 °F 30.00 in Calm     86% 0 in CLR
03:44 80.1 °F 75.5 °F 30.01 in Calm     86% 0 in CLR
03:49 79.9 °F 75.7 °F 30.01 in Calm     87% 0 in CLR
03:54 79.9 °F 75.7 °F 30.01 in Calm     87% 0 in CLR
03:59 79.9 °F 75.7 °F 30.01 in Calm     87% 0 in CLR
04:04 79.9 °F 75.7 °F 30.01 in Calm     87% 0 in CLR
04:09 79.9 °F 76 °F 30.01 in Calm     88% 0 in CLR
04:14 79.9 °F 75.7 °F 30.01 in Calm     87% 0 in CLR
04:19 79.9 °F 76 °F 30.01 in Calm     88% 0 in CLR
04:24 79.9 °F 76 °F 30.01 in Calm     88% 0 in CLR
04:29 79.7 °F 75.8 °F 30.01 in Calm     88% 0 in CLR
04:34 79.7 °F 75.8 °F 30.01 in Calm     88% 0 in CLR
04:39 79.9 °F 75.7 °F 30.01 in WNW 0.9 mph   87% 0 in CLR
04:44 80.1 °F 75.8 °F 30.01 in Calm     87% 0 in CLR
04:49 80.2 °F 75.7 °F 30.01 in SW 3.5 mph 0.9 mph 86% 0 in CLR
04:54 80.4 °F 75.8 °F 30.01 in WNW 3.5 mph 0.9 mph 86% 0 in CLR
04:59 80.4 °F 75.5 °F 30.01 in West 2.3 mph 0.9 mph 85% 0 in CLR
05:04 80.4 °F 75.8 °F 30.01 in WNW 3.5 mph   86% 0 in CLR
05:09 80.2 °F 75.7 °F 30.01 in Calm     86% 0 in CLR
05:14 80.1 °F 75.5 °F 30.01 in Calm     86% 0 in CLR
05:19 79.9 °F 75.7 °F 30.02 in Calm     87% 0 in CLR
05:24 79.9 °F 75.7 °F 30.02 in Calm     87% 0 in CLR
05:29 79.9 °F 75.7 °F 30.02 in Calm     87% 0 in CLR
05:34 79.5 °F 75.7 °F 30.02 in Calm     88% 0 in CLR
05:39 79.3 °F 75.5 °F 30.02 in Calm     88% 0 in CLR
05:44 79.2 °F 75.3 °F 30.02 in Calm     88% 0 in CLR
05:49 79.2 °F 75.3 °F 30.03 in Calm     88% 0 in CLR
05:54 79 °F 75.1 °F 30.03 in Calm     88% 0 in CLR
05:59 79 °F 75.1 °F 30.03 in Calm     88% 0 in CLR
06:04 79 °F 75.1 °F 30.03 in Calm     88% 0 in CLR
06:09 79.2 °F 75.6 °F 30.03 in Calm     89% 0 in CLR
06:14 79.3 °F 75.8 °F 30.04 in Calm     89% 0 in CLR
06:19 79.7 °F 75.8 °F 30.03 in Calm     88% 0 in CLR
06:24 79.7 °F 75.8 °F 30.03 in Calm     88% 0 in CLR
06:29 79.5 °F 75.7 °F 30.03 in Calm     88% 0 in CLR
06:34 79.5 °F 75.7 °F 30.03 in Calm     88% 0 in CLR
06:39 79.5 °F 76 °F 30.03 in Calm     89% 0 in CLR
06:44 79.5 °F 76 °F 30.03 in Calm     89% 0 in CLR
06:49 79.7 °F 76.2 °F 30.03 in Calm     89% 0 in CLR
06:54 79.9 °F 76.3 °F 30.03 in Calm     89% 0 in CLR
06:59 80.1 °F 76.5 °F 30.03 in WNW 2.9 mph   89% 0 in CLR
07:04 80.2 °F 76.4 °F 30.04 in WNW 2 mph 0.9 mph 88% 0 in CLR
07:09 80.6 °F 76.4 °F 30.04 in West 0.9 mph 0.9 mph 87% 0 in CLR
07:14 81 °F 76.7 °F 30.04 in Calm     87% 0 in CLR
07:19 81.1 °F 76.6 °F 30.04 in Calm     86% 0 in CLR
07:24 81.9 °F 76.9 °F 30.04 in WSW 1.2 mph 0.9 mph 85% 0 in CLR
07:29 82.4 °F 77.1 °F 30.05 in WNW 2 mph 0.9 mph 84% 0 in CLR
07:34 82.8 °F 77.1 °F 30.05 in WNW 4 mph 0.9 mph 83% 0 in CLR
07:39 82.9 °F 77.2 °F 30.05 in NNW 2.3 mph 2 mph 83% 0 in CLR
07:44 83.5 °F 77.8 °F 30.05 in SW 2.3 mph 2 mph 83% 0 in CLR
07:49 83.7 °F 77.6 °F 30.05 in West 2.3 mph 2 mph 82% 0 in CLR
07:54 84.2 °F 77.7 °F 30.05 in West 2.9 mph 2 mph 81% 0 in CLR
07:59 84.4 °F 77.2 °F 30.05 in West 3.5 mph 2 mph 79% 0 in CLR
08:04 84.7 °F 77.5 °F 30.05 in West 1.2 mph 2 mph 79% 0 in CLR
08:09 85.3 °F 77.2 °F 30.05 in West 2.3 mph 0.9 mph 77% 0 in CLR
08:14 85.5 °F 78.2 °F 30.05 in WSW 3.5 mph 2 mph 79% 0 in CLR
08:19 86 °F 77.5 °F 30.05 in SW 2 mph 2 mph 76% 0 in CLR
08:24 86.5 °F 77.3 °F 30.05 in WNW 2.3 mph 2 mph 74% 0 in CLR
08:29 86.2 °F 77.3 °F 30.05 in West 4 mph 2 mph 75% 0 in CLR
08:34 85.5 °F 76.6 °F 30.05 in WNW 2.9 mph 2 mph 75% 0 in CLR
08:39 85.3 °F 77.6 °F 30.05 in WSW 3.5 mph 2 mph 78% 0 in CLR
08:44 85.6 °F 78 °F 30.05 in WNW 3.5 mph 2 mph 78% 0 in CLR
08:49 85.5 °F 77.8 °F 30.05 in West 4.6 mph 2.9 mph 78% 0 in CLR
08:54 84.9 °F 78.1 °F 30.05 in West 2.3 mph 2.9 mph 80% 0 in CLR
08:59 84.9 °F 78.1 °F 30.05 in West 2.3 mph 2.9 mph 80% 0 in CLR
09:04 84.4 °F 77.9 °F 30.05 in WNW 3.5 mph 2 mph 81% 0 in CLR
09:09 84 °F 77.6 °F 30.06 in WNW 2.3 mph 2 mph 81% 0 in CLR
09:14 84 °F 77.6 °F 30.06 in SSE 3.5 mph 0.9 mph 81% 0 in CLR
09:19 83.8 °F 77 °F 30.06 in WNW 2.9 mph 2 mph 80% 0 in CLR
09:24 84.2 °F 77.4 °F 30.06 in West 2.9 mph 2 mph 80% 0 in CLR
09:29 85.3 °F 76.9 °F 30.06 in WNW 3.5 mph 2 mph 76% 0 in CLR
09:34 85.8 °F 77 °F 30.06 in WSW 3.5 mph 2.9 mph 75% 0 in CLR
09:39 86.5 °F 77.7 °F 30.06 in WSW 2.3 mph 2 mph 75% 0 in CLR
09:44 87.1 °F 77.4 °F 30.06 in West 2.3 mph 2 mph 73% 0 in CLR
09:49 87.3 °F 78.8 °F 30.06 in NW 1.2 mph 2 mph 76% 0 in CLR
09:54 87.4 °F 77.7 °F 30.06 in WSW 2.3 mph 2 mph 73% 0 in CLR
09:59 87.3 °F 77.5 °F 30.06 in West 3.5 mph 2 mph 73% 0 in CLR
10:04 87.3 °F 77.5 °F 30.06 in West 2.3 mph 2 mph 73% 0 in CLR
10:09 87.6 °F 77.5 °F 30.07 in South 1.2 mph 2 mph 72% 0 in CLR
10:14 87.4 °F 77.3 °F 30.07 in SW 2.3 mph 2 mph 72% 0 in CLR
10:19 87.1 °F 78.2 °F 30.07 in SSE 2.3 mph 2 mph 75% 0 in CLR
10:24 86.7 °F 77.4 °F 30.07 in SSE 2.3 mph 2 mph 74% 0 in CLR
10:29 86.7 °F 77.8 °F 30.07 in WNW 3.5 mph 2 mph 75% 0 in CLR
10:34 86.9 °F 77.2 °F 30.07 in SE 2.3 mph 2 mph 73% 0 in CLR
10:39 87.6 °F 77.5 °F 30.07 in WSW 2.3 mph 2 mph 72% 0 in CLR
10:44 88.7 °F 77.7 °F 30.07 in SSW 2.3 mph 2 mph 70% 0 in CLR
10:49 89.1 °F 78 °F 30.07 in SW 3.5 mph 2 mph 70% 0 in CLR
10:54 88.9 °F 78.3 °F 30.07 in SSW 3.5 mph 2 mph 71% 0 in CLR
10:59 88.9 °F 77.4 °F 30.07 in WSW 3.5 mph 2 mph 69% 0 in CLR
11:04 88.9 °F 76.9 °F 30.07 in NW 3.5 mph 2 mph 68% 0 in CLR
11:09 89.4 °F 77.9 °F 30.07 in WSW 3.5 mph 2 mph 69% 0 in CLR
11:14 89.2 °F 75.5 °F 30.07 in WSW 3.5 mph 2.9 mph 64% 0 in CLR
11:19 89.4 °F 76.1 °F 30.07 in WNW 4 mph 2.9 mph 65% 0 in CLR
11:24 90 °F 76.6 °F 30.07 in WNW 4.6 mph 2.9 mph 65% 0 in CLR
11:29 89.8 °F 76.9 °F 30.07 in West 5.8 mph 2.9 mph 66% 0 in CLR
11:34 89.8 °F 78.2 °F 30.06 in SE 2.3 mph 2.9 mph 69% 0 in CLR
11:39 89.8 °F 78.7 °F 30.07 in West 3.5 mph 2 mph 70% 0 in CLR
11:44 89.2 °F 77.7 °F 30.07 in West 1.2 mph 2 mph 69% 0 in CLR
11:49 89.2 °F 77.7 °F 30.07 in WNW 5.8 mph 2 mph 69% 0 in CLR
11:54 89.2 °F 77.7 °F 30.07 in WSW 3.5 mph 2 mph 69% 0 in CLR
11:59 88.9 °F 77.4 °F 30.06 in South 1.2 mph 2 mph 69% 0 in CLR
12:04 88.7 °F 78.1 °F 30.06 in SW 3.5 mph 2.9 mph 71% 0 in CLR
12:09 89.4 °F 78.8 °F 30.06 in SW 3.5 mph 2.9 mph 71% 0 in CLR
12:14 89.4 °F 78.8 °F 30.06 in SW 3.5 mph 2.9 mph 71% 0 in CLR
12:19 87.3 °F 78 °F 30.06 in West 8 mph 6 mph 74% 0 in CLR
12:24 86.2 °F 77.7 °F 30.07 in NW 9.2 mph 6 mph 76% 0 in CLR
12:29 85.3 °F 77.6 °F 30.06 in WNW 10.4 mph 6.9 mph 78% 0 in CLR
12:34 84.9 °F 78.1 °F 30.06 in SW 4.9 mph 6 mph 80% 0 in CLR
12:39 84.6 °F 75.8 °F 30.06 in NW 3.5 mph 4.9 mph 75% 0 in CLR
12:44 84.4 °F 75.2 °F 30.06 in WNW 4.9 mph 2.9 mph 74% 0 in CLR
12:49 84.7 °F 75.1 °F 30.06 in NNW 8 mph 2.9 mph 73% 0 in CLR
12:54 85.3 °F 75.2 °F 30.05 in WSW 6.9 mph 4 mph 72% 0 in CLR
12:59 85.5 °F 75.4 °F 30.06 in West 3.5 mph 4 mph 72% 0 in CLR
13:04 86 °F 76.7 °F 30.05 in NW 3.5 mph 2.9 mph 74% 0 in CLR
13:09 86 °F 76.3 °F 30.06 in West 5.8 mph 4 mph 73% 0 in CLR
13:14 86.2 °F 76.9 °F 30.06 in WNW 4.6 mph 4 mph 74% 0 in CLR
13:19 86.4 °F 76.3 °F 30.06 in WSW 4.9 mph 4.9 mph 72% 0 in CLR
13:24 86.4 °F 76.3 °F 30.06 in WSW 4.9 mph 4.9 mph 72% 0 in CLR
13:29 87.1 °F 76.5 °F 30.05 in WNW 6.9 mph 4.9 mph 71% 0 in CLR
13:34 87.6 °F 77.9 °F 30.05 in West 3.5 mph 4.9 mph 73% 0 in CLR
13:39 88.2 °F 77.6 °F 30.05 in West 4 mph 4 mph 71% 0 in CLR
13:44 88.2 °F 77.6 °F 30.05 in West 4 mph 2.9 mph 71% 0 in CLR
13:49 88.2 °F 78.4 °F 30.05 in West 4.6 mph 4 mph 73% 0 in CLR
13:54 88.9 °F 78.3 °F 30.05 in WNW 5.8 mph 4 mph 71% 0 in CLR
13:59 89.1 °F 77.6 °F 30.05 in WSW 5.8 mph 2.9 mph 69% 0 in CLR
14:04 88.9 °F 77.8 °F 30.04 in West 4 mph 2.9 mph 70% 0 in CLR
14:09 89.1 °F 77.6 °F 30.04 in SW 3.5 mph 2.9 mph 69% 0 in CLR
14:14 89.2 °F 77.3 °F 30.04 in West 6.9 mph 2.9 mph 68% 0 in CLR
14:19 89.1 °F 78 °F 30.04 in WNW 4 mph 2.9 mph 70% 0 in CLR
14:24 89.2 °F 77.7 °F 30.04 in WNW 4.9 mph 2.9 mph 69% 0 in CLR
14:29 88.7 °F 77.7 °F 30.04 in WSW 2.9 mph 2.9 mph 70% 0 in CLR
14:34 88.5 °F 77.5 °F 30.04 in SE 2 mph 2 mph 70% 0 in CLR
14:39 88.5 °F 77.5 °F 30.04 in WSW 4.6 mph 2 mph 70% 0 in CLR
14:44 88 °F 76.5 °F 30.04 in WNW 4.9 mph 2.9 mph 69% 0 in CLR
14:49 87.6 °F 77 °F 30.04 in SW 2.9 mph 2.9 mph 71% 0 in CLR
14:54 87.6 °F 77 °F 30.04 in WNW 4.9 mph 2.9 mph 71% 0 in CLR
14:59 87.4 °F 76.4 °F 30.04 in WSW 4.9 mph 2.9 mph 70% 0 in CLR
15:04 87.4 °F 77.3 °F 30.04 in West 5.8 mph 2.9 mph 72% 0 in CLR
15:09 87.4 °F 77.3 °F 30.04 in SW 4.6 mph 2.9 mph 72% 0 in CLR
15:14 87.6 °F 77.5 °F 30.04 in South 4 mph 2 mph 72% 0 in CLR
15:19 87.1 °F 77 °F 30.04 in NNW 4.6 mph 2.9 mph 72% 0 in CLR
15:24 86.5 °F 76.9 °F 30.04 in WSW 3.5 mph 2.9 mph 73% 0 in CLR
15:29 86.4 °F 76.7 °F 30.04 in West 5.8 mph 2 mph 73% 0 in CLR
15:34 86.2 °F 77.3 °F 30.04 in WNW 4.9 mph 2.9 mph 75% 0 in CLR
15:39 85.8 °F 77 °F 30.04 in SW 5.8 mph 4 mph 75% 0 in CLR
15:44 85.8 °F 77.4 °F 30.03 in Calm   2.9 mph 76% 0 in CLR
15:49 86 °F 77.5 °F 30.04 in NW 2 mph 2 mph 76% 0 in CLR
15:54 85.8 °F 76.6 °F 30.04 in WNW 2.3 mph 2 mph 74% 0 in CLR
15:59 85.6 °F 76.8 °F 30.03 in NW 3.5 mph 2.9 mph 75% 0 in CLR
16:04 85.6 °F 76.8 °F 30.03 in SSE 3.5 mph 2.9 mph 75% 0 in CLR
16:09 85.6 °F 76.4 °F 30.03 in West 3.5 mph 2 mph 74% 0 in CLR
16:14 85.3 °F 76.9 °F 30.03 in West 4.6 mph 2 mph 76% 0 in CLR
16:19 85.3 °F 77.6 °F 30.03 in WNW 3.5 mph 2.9 mph 78% 0 in CLR
16:24 85.8 °F 77.8 °F 30.03 in West 4 mph 2.9 mph 77% 0 in CLR
16:29 85.8 °F 77.4 °F 30.03 in West 3.5 mph 2 mph 76% 0 in CLR
16:34 86.4 °F 77.9 °F 30.03 in WNW 4 mph 2.9 mph 76% 0 in CLR
16:39 86.7 °F 78.2 °F 30.03 in WSW 9.2 mph 2.9 mph 76% 0 in CLR
16:44 87.4 °F 78.1 °F 30.02 in West 4 mph 2.9 mph 74% 0 in CLR
16:49 87.4 °F 77.3 °F 30.03 in WNW 4.6 mph 2.9 mph 72% 0 in CLR
16:54 87.3 °F 76.7 °F 30.03 in WSW 4.6 mph 4 mph 71% 0 in CLR
16:59 87.4 °F 77.7 °F 30.03 in NW 2.3 mph 2.9 mph 73% 0 in CLR
17:04 88.2 °F 78 °F 30.03 in SW 3.5 mph 2 mph 72% 0 in CLR
17:09 87.6 °F 77.5 °F 30.03 in WSW 4.6 mph 2.9 mph 72% 0 in CLR
17:14 87.4 °F 78.1 °F 30.03 in WNW 3.5 mph 2.9 mph 74% 0 in CLR
17:19 87.3 °F 78 °F 30.03 in WNW 10.4 mph 4 mph 74% 0 in CLR
17:24 86.9 °F 77.6 °F 30.04 in WNW 6 mph 4 mph 74% 0 in CLR
17:29 87.1 °F 77.8 °F 30.04 in NW 4.9 mph 4 mph 74% 0 in CLR
17:34 86.7 °F 77.8 °F 30.03 in WNW 3.5 mph 4 mph 75% 0 in CLR
17:39 86.4 °F 77.5 °F 30.03 in WNW 2.3 mph 2.9 mph 75% 0 in CLR
17:44 86.4 °F 76.7 °F 30.04 in NW 5.8 mph 2.9 mph 73% 0 in CLR
17:49 85.8 °F 76.6 °F 30.04 in WSW 4.9 mph 2.9 mph 74% 0 in CLR
17:54 85.8 °F 77 °F 30.03 in NW 3.5 mph 2.9 mph 75% 0 in CLR
17:59 85.5 °F 76.6 °F 30.03 in WSW 6 mph 2.9 mph 75% 0 in CLR
18:04 85.3 °F 77.2 °F 30.03 in WNW 4.6 mph 4 mph 77% 0 in CLR
18:09 84.9 °F 76.9 °F 30.03 in West 4.6 mph 4 mph 77% 0 in CLR
18:14 84.6 °F 77.3 °F 30.02 in WNW 3.5 mph 2.9 mph 79% 0 in CLR
18:19 84.6 °F 77.3 °F 30.02 in WNW 3.5 mph 2.9 mph 79% 0 in CLR
18:24 84 °F 76.8 °F 30.02 in WNW 3.5 mph 2.9 mph 79% 0 in CLR
Panama City, Florida, USA
Compliments of Weather Underground - 3.5 mb